Wind_Speed
3 4 6 6 7 7 9 11 12 13 12 12 12 12 13 13 13 13 13 13 13 13 12 11 10 10 9 8 8 8 7 7 6 7 6 6 7 7 6 6 6 6 6
4 5 6 7 8 9 9 11 13 13 13 13 12 13 13 14 13 13 13 13 13 12 12 10 10 10 9 8 8 8 7 7 6 7 7 6 6 6 6 6 6 7 6
5 6 6 8 9 10 10 11 13 13 14 13 13 13 13 14 14 14 13 13 13 12 11 11 10 10 9 8 7 8 7 7 7 7 7 7 7 6 6 6 6 6 6
6 5 6 7 9 10 10 12 13 14 14 14 14 13 13 13 15 15 13 12 12 11 11 11 10 10 9 8 7 7 7 7 7 7 7 7 6 6 6 5 5 5 5
6 5 6 7 9 10 9 11 13 14 14 15 14 14 13 14 15 14 12 12 12 11 11 11 10 9 9 8 8 8 7 7 8 7 7 7 6 5 5 5 5 5 4
6 6 6 8 8 9 9 10 12 14 14 15 14 15 14 14 14 13 13 12 12 11 11 10 10 9 9 8 8 8 7 7 7 6 6 6 5 5 4 5 5 4 4
7 6 6 7 8 9 9 10 12 13 14 15 15 15 14 14 13 12 12 11 11 11 11 9 9 8 8 8 7 7 7 7 7 6 6 6 5 5 4 4 4 3 3
7 6 6 7 8 8 10 11 12 13 14 16 15 14 14 13 12 12 10 11 10 10 10 10 8 9 8 8 7 7 7 6 6 6 6 5 5 5 4 3 3 3 3
7 7 7 8 7 7 9 11 12 13 14 14 14 13 13 13 12 11 11 11 10 10 10 10 8 8 8 7 6 6 6 6 6 6 5 5 5 4 3 3 3 3 2
9 8 8 8 7 8 9 10 12 13 13 13 13 12 12 12 11 11 10 10 10 10 9 9 8 8 7 7 7 6 6 6 6 5 5 5 4 4 3 2 2 2 2
9 8 8 8 8 8 9 10 11 12 13 12 13 13 13 12 11 11 10 10 9 9 8 8 8 7 7 7 7 7 6 6 5 5 5 5 4 4 3 2 2 2 3
9 8 8 8 7 7 8 9 10 11 11 12 12 13 12 11 11 11 10 10 9 9 8 8 7 6 6 6 6 6 6 5 5 4 4 4 4 4 3 3 3 3 3
9 8 7 7 7 8 8 9 9 11 11 11 11 12 12 12 11 10 9 10 8 9 8 8 6 6 5 5 6 5 5 5 5 4 4 4 4 4 4 4 4 4 5
10 8 7 7 7 8 8 8 8 10 10 11 11 10 10 12 11 11 10 9 9 8 8 8 6 6 6 6 5 5 5 5 5 5 5 5 5 5 5 5 6 5 5
9 9 8 7 8 8 7 6 7 7 9 10 11 10 10 11 11 11 10 9 9 8 8 8 7 7 5 5 5 6 5 5 5 5 5 6 6 5 6 6 6 6 6
8 8 7 7 6 6 7 6 6 7 8 10 10 9 10 10 9 9 9 8 8 7 7 7 7 6 5 5 5 6 5 5 5 5 5 5 6 6 6 6 7 7 7
8 7 7 7 7 6 6 6 6 7 9 9 9 9 9 9 9 8 8 7 7 7 7 7 7 5 5 5 6 6 6 6 5 5 5 5 5 6 6 6 6 6 7
7 7 7 6 6 6 6 6 6 7 8 8 8 8 8 8 8 8 8 8 7 7 6 6 6 5 5 5 5 6 6 6 6 5 5 5 5 5 6 6 7 7 8
6 6 5 5 5 5 6 6 6 6 7 7 7 7 7 8 8 7 8 7 6 6 5 5 6 5 5 5 6 6 6 6 6 6 6 6 6 7 7 8 8 9 9
5 4 4 4 3 3 4 4 5 5 5 6 6 6 7 6 6 6 6 6 5 5 5 5 5 5 5 5 6 6 6 5 6 6 7 7 7 8 8 9 9 9 10
4 3 4 3 2 2 2 2 2 3 3 4 4 4 4 5 5 5 5 5 4 4 4 4 5 5 5 5 5 6 6 6 6 6 7 7 8 9 9 9 10 10 11
5 4 3 3 2 1 1 0 0 1 2 3 3 3 4 4 5 5 5 5 5 5 5 5 5 5 5 5 5 6 7 7 7 8 8 8 9 10 10 11 11 11 11
5 5 4 3 3 2 2 2 2 2 3 3 3 4 4 5 5 6 6 6 6 6 6 6 6 6 6 6 7 7 8 8 9 9 9 9 10 10 11 11 12 12 12
6 6 5 5 5 5 4 4 4 4 4 4 4 5 5 6 6 6 7 7 7 7 7 7 8 8 8 8 9 9 9 10 10 10 11 11 12 11 11 12 12 12 12
8 7 7 6 6 6 6 6 5 5 6 6 6 6 6 7 7 7 7 7 8 8 8 9 10 10 10 10 10 11 11 11 12 12 12 13 13 13 13 14 14 14 13
9 9 8 8 8 8 8 8 8 7 8 8 8 8 8 8 8 8 9 9 9 10 10 10 11 11 12 12 12 13 13 13 13 14 14 14 15 15 15 15 16 16 15
Wind_Direction
107 134 153 152 157 158 158 160 167 169 167 166 163 158 158 159 156 159 162 157 153 149 147 148 148 143 140 139 136 135 132 134 131 130 127 125 126 124 118 115 112 108 107
114 132 140 152 150 150 155 160 165 165 166 163 162 160 157 158 153 154 158 153 154 152 148 147 146 147 142 138 137 137 137 136 138 137 133 129 130 127 121 117 113 109 107
100 129 131 146 147 144 149 158 161 163 162 162 163 159 157 155 153 151 152 153 154 152 148 148 149 149 146 143 140 139 139 138 138 136 134 130 129 126 123 120 117 114 112
92 109 137 144 146 145 151 160 163 161 160 162 161 154 153 153 152 149 149 148 151 148 150 149 151 153 152 151 148 146 142 139 136 137 135 134 130 130 130 127 122 119 117
84 95 123 140 142 146 151 159 163 163 163 162 157 154 153 151 152 150 148 147 148 149 152 146 148 152 153 153 153 150 148 149 142 138 134 130 132 138 138 135 132 127 121
88 89 116 133 139 142 148 153 159 164 163 161 154 154 154 151 152 153 148 148 151 153 152 147 146 149 152 153 154 147 146 146 148 140 136 129 131 140 141 141 137 133 129
98 103 116 131 138 142 145 147 152 155 158 158 157 154 155 156 154 154 151 151 153 155 151 148 150 152 152 154 154 153 147 148 152 150 146 138 138 138 135 137 142 143 141
93 109 126 136 144 143 143 143 146 147 151 154 156 155 154 155 155 153 153 156 157 156 153 152 153 158 157 157 160 159 157 155 157 158 157 149 143 138 129 132 147 157 153
91 105 121 129 139 137 140 143 148 149 151 153 155 155 157 157 157 159 159 159 160 160 158 160 161 162 161 163 167 167 166 162 164 166 165 160 154 150 151 157 167 176 176
87 92 106 122 124 129 137 148 150 150 150 155 158 157 160 160 160 162 164 166 167 170 167 167 167 173 176 174 175 170 171 167 167 174 176 176 174 172 176 188 188 201 214
77 88 98 106 112 127 139 145 154 157 153 156 159 160 161 163 167 168 169 170 172 175 172 174 173 175 180 183 181 178 178 180 175 178 189 195 190 192 202 214 226 226 238
71 82 94 102 110 123 138 142 148 156 159 160 165 167 165 168 170 168 169 172 175 180 182 183 179 178 179 185 184 183 184 187 184 193 205 210 212 216 221 232 239 238 248
67 74 88 103 109 114 126 139 147 154 160 164 166 169 171 172 169 169 170 171 175 179 185 190 190 186 190 194 189 187 191 193 200 210 218 218 225 227 233 237 240 246 255
63 70 84 97 113 117 125 137 145 154 162 163 166 165 172 174 169 170 172 171 172 175 182 187 193 199 204 201 198 197 195 191 201 218 228 228 233 239 244 244 244 249 255
60 67 81 90 107 116 122 131 137 145 156 160 163 165 167 173 173 173 175 176 182 189 196 200 209 202 206 208 205 202 199 200 206 220 233 238 242 249 250 250 249 254 259
59 65 74 81 94 106 117 126 129 139 152 160 161 163 166 168 171 175 180 185 190 197 202 205 208 205 206 206 203 204 207 216 222 233 245 249 249 254 254 253 255 257 260
53 58 66 80 87 100 107 116 129 139 149 159 165 169 170 174 177 182 188 195 196 198 203 205 207 209 204 207 210 214 214 223 236 240 249 254 258 256 258 262 267 270 269
49 53 57 75 86 96 103 108 126 134 143 151 159 167 173 179 181 188 193 193 193 198 205 210 208 206 208 216 221 227 233 237 242 250 255 262 266 265 264 269 274 275 274
43 46 50 62 76 84 93 103 124 130 139 151 161 169 175 177 179 183 184 186 192 199 208 212 211 215 219 226 225 232 241 245 252 259 265 272 270 269 268 271 271 272 273
29 33 35 46 59 67 88 99 114 121 137 157 163 166 174 179 181 182 182 182 189 202 212 217 217 221 227 228 228 231 238 249 260 267 270 271 272 272 272 276 276 274 275
10 9 11 11 20 50 94 105 120 138 142 160 164 165 173 182 190 197 199 198 203 212 215 220 225 227 235 235 238 241 249 258 267 274 278 276 272 273 273 278 280 279 275
348 352 348 348 353 16 44 352 221 201 193 185 191 197 204 204 204 208 214 218 224 231 233 235 235 238 243 247 257 258 263 268 275 278 279 277 275 274 273 275 280 280 279
324 326 320 307 314 316 305 292 277 258 242 232 231 231 229 225 226 226 228 235 239 241 242 245 244 250 256 260 263 265 265 268 277 284 285 284 283 282 279 279 281 280 279
306 304 302 293 292 293 282 271 268 264 258 259 253 245 241 240 243 245 245 248 248 249 253 257 260 261 265 266 269 269 268 267 272 280 284 284 285 286 283 280 282 282 281
293 290 288 287 288 281 275 275 276 265 260 261 258 254 251 248 251 255 258 255 253 256 260 263 266 267 272 270 271 273 274 273 275 281 283 283 284 287 284 281 281 283 283
283 282 283 285 283 278 271 271 269 266 267 265 263 261 259 256 254 258 262 259 258 260 264 267 266 268 271 273 272 274 274 275 279 282 283 283 284 286 284 284 281 281 281
Height
5866 5865 5864 5863 5864 5864 5865 5866 5868 5871 5872 5874 5876 5878 5879 5881 5882 5884 5885 5887 5889 5890 5891 5893 5894 5895 5896 5898 5898 5899 5900 5901 5902 5903 5903 5904 5904 5905 5905 5906 5906 5906 5906
5866 5864 5864 5864 5864 5865 5866 5867 5869 5870 5872 5874 5876 5878 5880 5881 5883 5884 5886 5887 5889 5891 5892 5893 5895 5896 5897 5898 5899 5900 5901 5902 5903 5904 5904 5905 5905 5906 5906 5907 5907 5907 5907
5865 5864 5865 5865 5865 5866 5867 5868 5869 5870 5873 5875 5876 5878 5880 5882 5883 5885 5886 5888 5890 5891 5893 5894 5895 5897 5898 5899 5900 5901 5902 5903 5904 5905 5905 5906 5906 5907 5907 5907 5908 5908 5908
5867 5865 5865 5866 5866 5867 5868 5869 5870 5871 5873 5875 5877 5879 5881 5882 5884 5886 5887 5889 5890 5892 5893 5895 5896 5897 5898 5900 5901 5902 5903 5903 5905 5905 5906 5906 5907 5907 5908 5908 5908 5909 5909
5868 5867 5867 5867 5867 5868 5869 5870 5871 5872 5874 5876 5878 5880 5881 5883 5885 5886 5887 5889 5891 5893 5894 5896 5897 5898 5899 5900 5901 5902 5903 5904 5905 5906 5907 5907 5908 5908 5909 5909 5909 5910 5910
5869 5868 5868 5868 5868 5869 5869 5870 5871 5873 5874 5876 5878 5881 5883 5884 5886 5887 5889 5891 5892 5894 5895 5896 5898 5899 5900 5901 5902 5903 5904 5905 5906 5907 5908 5908 5909 5909 5910 5910 5910 5911 5911
5870 5869 5870 5870 5870 5870 5870 5871 5872 5873 5875 5877 5879 5882 5884 5885 5887 5888 5890 5892 5893 5895 5896 5897 5899 5900 5901 5902 5903 5904 5905 5906 5907 5908 5908 5909 5910 5910 5911 5911 5911 5912 5912
5872 5871 5871 5871 5871 5871 5871 5872 5873 5874 5876 5878 5880 5882 5884 5886 5888 5889 5891 5892 5894 5896 5897 5898 5899 5901 5902 5903 5904 5905 5906 5907 5908 5908 5909 5910 5910 5911 5911 5912 5912 5912 5912
5873 5872 5872 5872 5872 5873 5873 5874 5875 5876 5877 5879 5881 5883 5885 5887 5889 5890 5892 5893 5895 5896 5897 5899 5900 5901 5902 5903 5904 5905 5906 5907 5908 5909 5909 5910 5911 5911 5912 5912 5912 5913 5913
5875 5874 5874 5874 5873 5874 5874 5875 5876 5877 5879 5880 5882 5884 5886 5887 5889 5891 5893 5894 5895 5896 5898 5899 5900 5901 5903 5904 5905 5906 5907 5907 5908 5909 5910 5910 5911 5911 5912 5912 5912 5913 5913
5877 5876 5876 5876 5875 5876 5876 5877 5878 5879 5880 5882 5883 5885 5886 5888 5890 5892 5893 5894 5896 5897 5899 5900 5901 5902 5903 5904 5905 5906 5907 5908 5909 5909 5910 5911 5911 5911 5912 5912 5912 5912 5912
5879 5879 5878 5878 5878 5878 5878 5879 5879 5880 5882 5883 5884 5885 5887 5889 5890 5892 5894 5895 5896 5897 5898 5900 5901 5902 5903 5904 5905 5906 5907 5908 5909 5909 5910 5910 5911 5911 5911 5911 5911 5911 5912
5881 5881 5880 5880 5879 5880 5880 5880 5881 5882 5883 5884 5885 5886 5888 5889 5891 5893 5894 5895 5896 5897 5899 5900 5901 5902 5903 5904 5905 5906 5907 5908 5909 5909 5910 5910 5910 5911 5911 5911 5911 5911 5911
5884 5883 5882 5882 5881 5881 5881 5881 5882 5882 5883 5884 5886 5887 5888 5890 5892 5893 5894 5896 5897 5897 5899 5900 5901 5902 5903 5904 5905 5906 5907 5907 5908 5909 5909 5909 5909 5910 5909 5909 5910 5910 5910
5886 5885 5884 5883 5883 5883 5883 5883 5882 5882 5883 5885 5887 5888 5889 5891 5892 5894 5895 5896 5897 5898 5899 5900 5901 5902 5903 5904 5905 5905 5906 5907 5907 5908 5908 5908 5908 5908 5908 5908 5908 5908 5909
5888 5887 5886 5885 5885 5884 5884 5884 5883 5883 5884 5886 5888 5889 5890 5891 5893 5894 5895 5897 5897 5898 5899 5900 5901 5902 5903 5903 5904 5905 5906 5906 5907 5907 5907 5907 5907 5907 5907 5907 5907 5907 5907
5890 5889 5888 5887 5886 5886 5886 5885 5884 5884 5885 5887 5888 5890 5891 5892 5893 5894 5895 5896 5897 5898 5899 5900 5901 5901 5902 5903 5904 5905 5905 5906 5906 5906 5906 5906 5906 5905 5906 5906 5906 5905 5905
5891 5890 5889 5889 5888 5888 5887 5887 5887 5886 5887 5888 5889 5890 5891 5892 5893 5894 5895 5896 5897 5898 5899 5900 5900 5901 5902 5903 5903 5904 5905 5905 5905 5905 5905 5905 5905 5905 5904 5904 5905 5904 5904
5893 5892 5891 5890 5890 5889 5889 5889 5889 5889 5889 5890 5890 5891 5892 5892 5893 5894 5895 5896 5897 5898 5899 5900 5900 5901 5901 5902 5902 5903 5904 5904 5904 5904 5904 5904 5904 5904 5903 5903 5903 5903 5903
5894 5893 5892 5892 5891 5891 5891 5890 5890 5891 5891 5891 5891 5892 5892 5893 5893 5894 5895 5896 5897 5898 5898 5899 5899 5900 5900 5901 5901 5902 5903 5903 5903 5903 5902 5902 5902 5902 5902 5901 5901 5901 5901
5895 5894 5893 5892 5892 5891 5891 5891 5892 5892 5892 5892 5893 5893 5893 5893 5894 5895 5896 5896 5897 5897 5898 5898 5898 5899 5899 5900 5901 5901 5901 5901 5901 5901 5901 5901 5900 5900 5900 5899 5899 5899 5898
5895 5894 5893 5893 5892 5892 5892 5892 5892 5892 5892 5893 5893 5893 5893 5893 5893 5894 5895 5896 5896 5897 5897 5897 5897 5898 5898 5899 5899 5899 5900 5900 5900 5899 5899 5899 5898 5898 5898 5897 5897 5896 5896
5895 5894 5894 5893 5893 5892 5892 5892 5892 5892 5892 5892 5893 5893 5893 5893 5893 5893 5894 5895 5895 5895 5896 5896 5896 5897 5897 5897 5897 5897 5898 5898 5898 5898 5897 5897 5896 5896 5895 5895 5894 5894 5893
5895 5894 5893 5893 5893 5892 5892 5892 5892 5892 5892 5892 5892 5892 5892 5892 5892 5892 5893 5893 5893 5894 5894 5895 5895 5895 5895 5895 5895 5895 5895 5895 5895 5895 5895 5894 5894 5893 5893 5893 5892 5891 5891
5894 5893 5892 5892 5892 5892 5891 5891 5891 5891 5891 5891 5891 5891 5890 5890 5891 5891 5891 5891 5892 5892 5892 5893 5893 5893 5893 5893 5893 5893 5892 5892 5892 5892 5892 5891 5891 5890 5890 5889 5889 5889 5888
5892 5891 5891 5890 5890 5890 5889 5889 5889 5889 5889 5889 5889 5889 5889 5888 5889 5889 5889 5889 5889 5890 5890 5890 5890 5891 5891 5890 5890 5890 5890 5890 5890 5889 5889 5888 5888 5887 5886 5886 5885 5885 5884